loading
|

STARLINK-11183, 60189

Orbit data source: Space-Track

STARLINK-11183, 60189 is a payload satellite owned by SpaceX/Seattle (US) in LEO that was launched on Wed, 03 Jul 2024 UTC via an FALCON 9 launch vehicle from the Air Force Eastern Test Range (AFETR). Payloads include a variety of satellites, spacecraft, and rockets equipped with specific instruments for various scientific and technological missions. These include communications satellites like Starlink; space stations such as the ISS; scientific satellites like the Hubble; Earth observation satellites from companies like Planet Labs, Umbra, and HawkEye 360; GPS; miniature CubeSats for education and research; and military/defense satellites.

Loading next visibility...
Next conjunction unknown
Loading greatness...
STARLINK-11183 details
Identifier
60189, 2024-124G
Orbit
LEO
Last TLE update14 hours ago
Origin
Flag of USSpaceX/Seattle (US)
ManufacturerSpaceX/Seattle
MissionOperational spacecraft
Bus & MotorSTARLINK V2M, Unknown motor
Mass750 kg wet, ~700 kg dry
Launch date (UTC)
2024-07-03 (3 months ago)
Launch vehicle
FALCON 9
Launch site
Air Force Eastern Test Range (AFETR)
Object type
Payload
Rocket body
Debris
Shape & HBRUnknown
Radar Cross SectionLarge (>1 m²)

Expand to show TLE details & history

TLE from 14 hours ago
0 STARLINK-11183
1 60189U 24124G   24288.06739219  .00015400  00000-0  13162-3 0  9994
2 60189  53.1575 163.6871 0000639 196.2313 163.8684 15.69730912 17138
Epoch: 2024-10-14T01:37Z
Definitive object data (Epoch: 2024-10-14T01:37:02.685Z)
Latitude-0.00005°
Longitude116.32603°
Altitude360.995 km
Speed7.694 km/s
True Right ascension10h 54m 44s
True Declination0° 00' 00"
Sunlit
Object was in daylight at TLE epoch
Predictive object data (real-time)
Latitude40.93557°
Longitude-106.86403°
Altitude363.266 km
Speed7.697 km/s
Apparent Right ascension21h 13m 38s
Apparent Declination1° 57' 21"
Sunlit
Object is in daylight
Predictive observer data (real-time)
Local Sidereal Time10:28:19
Azimuth26.792° NE
Elevation-44.772°
Doppler factor1
Orbital elements
Apogee360.359 km
Perigee359.497 km
Semi-major axis6,738.065 km
Eccentricity0.0000639
Inclination53.1575°
RAAN163.6871°
Arg. of periapsis196.2313°
True anomaly163.87043°
Mean anomaly163.8684°
Eccentric anomaly163.86942°
Mean motion3.9241 °/min
BSTAR0.00013162
Period91.74 mins
No data available

STARLINK-11183 Visibility forecast

Observer location: 39.9160978°, -105.1181434

Span
Click to sort rows by Start time (UTC) header in descending order
Start Az.
Max El. time (UTC)
Max El. Az.
Max El.
End time (UTC)
End Az.
4 mins2024-10-14 18:37:03.515Z227.205° WSW2024-10-14 18:39:03.515Z98.791° ESE44.872°2024-10-14 18:41:03.515Z51.177° ENE
4 mins2024-10-15 01:02:03.515Z327.801° NNW2024-10-15 01:04:03.515Z64.661° ENE36.308°2024-10-15 01:06:03.515Z111.935° ESE